Time,TemperatureF,DewpointF,PressureIn,WindDirection,WindDirectionDegrees,WindSpeedMPH,WindSpeedGustMPH,Humidity,HourlyPrecipIn,Conditions,Clouds,dailyrainin,SoftwareType,DateUTC
2013-01-22 00:08:00,-0.7,-4.0,30.09,East,91,0.0,0.0,86,0.00,,,0.00,weatherlink.com 1.10,2013-01-22 09:08:00,
2013-01-22 00:23:00,-0.9,-5.0,30.09,East,91,0.0,0.0,84,0.00,,,0.00,weatherlink.com 1.10,2013-01-22 09:23:00,
2013-01-22 00:38:00,-0.9,-4.0,30.08,East,91,0.0,0.0,85,0.00,,,0.00,weatherlink.com 1.10,2013-01-22 09:38:00,
2013-01-22 00:53:00,-0.9,-4.0,30.08,East,91,0.0,0.0,86,0.00,,,0.00,weatherlink.com 1.10,2013-01-22 09:53:00,
2013-01-22 01:08:00,-0.4,-4.0,30.07,East,91,0.0,0.0,85,0.00,,,0.00,weatherlink.com 1.10,2013-01-22 10:08:00,
2013-01-22 01:23:00,-0.5,-4.0,30.07,East,85,0.0,0.0,86,0.00,,,0.00,weatherlink.com 1.10,2013-01-22 10:23:00,
2013-01-22 01:38:00,0.0,-3.0,30.06,East,85,0.0,0.0,86,0.00,,,0.00,weatherlink.com 1.10,2013-01-22 10:38:00,
2013-01-22 01:53:00,-0.5,-4.0,30.06,East,86,0.0,0.0,86,0.00,,,0.00,weatherlink.com 1.10,2013-01-22 10:53:00,
2013-01-22 02:08:00,-0.3,-4.0,30.06,East,85,0.0,0.0,86,0.00,,,0.00,weatherlink.com 1.10,2013-01-22 11:08:00,
2013-01-22 02:23:00,-0.4,-4.0,30.05,ENE,76,0.0,0.0,86,0.00,,,0.00,weatherlink.com 1.10,2013-01-22 11:23:00,
2013-01-22 02:38:00,-0.6,-4.0,30.04,ENE,74,0.0,0.0,85,0.00,,,0.00,weatherlink.com 1.10,2013-01-22 11:38:00,
2013-01-22 02:53:00,-0.5,-4.0,30.04,ENE,74,0.0,0.0,86,0.00,,,0.00,weatherlink.com 1.10,2013-01-22 11:53:00,
2013-01-22 03:09:00,-0.6,-4.0,30.04,North,11,0.0,0.0,86,0.00,,,0.00,weatherlink.com 1.10,2013-01-22 12:09:00,
2013-01-22 03:24:00,-0.7,-4.0,30.04,East,89,0.0,0.0,86,0.00,,,0.00,weatherlink.com 1.10,2013-01-22 12:24:00,
2013-01-22 03:39:00,-0.8,-4.0,30.03,NNE,18,0.0,0.0,85,0.00,,,0.00,weatherlink.com 1.10,2013-01-22 12:39:00,
2013-01-22 03:54:00,-0.8,-4.0,30.03,ENE,70,0.0,0.0,86,0.00,,,0.00,weatherlink.com 1.10,2013-01-22 12:54:00,
2013-01-22 04:09:00,-1.1,-5.0,30.03,East,94,0.0,0.0,85,0.00,,,0.00,weatherlink.com 1.10,2013-01-22 13:09:00,
2013-01-22 04:24:00,-1.2,-5.0,30.02,ENE,73,0.0,0.0,85,0.00,,,0.00,weatherlink.com 1.10,2013-01-22 13:24:00,
2013-01-22 04:39:00,-1.5,-5.0,30.02,NW,317,0.0,0.0,85,0.00,,,0.00,weatherlink.com 1.10,2013-01-22 13:39:00,
2013-01-22 04:54:00,-1.7,-5.0,30.02,WNW,300,0.0,0.0,85,0.00,,,0.00,weatherlink.com 1.10,2013-01-22 13:54:00,
2013-01-22 05:09:00,-1.8,-5.0,30.02,WNW,301,0.0,0.0,85,0.00,,,0.00,weatherlink.com 1.10,2013-01-22 14:09:00,
2013-01-22 05:24:00,-1.9,-5.0,30.01,NW,304,0.0,0.0,85,0.00,,,0.00,weatherlink.com 1.10,2013-01-22 14:24:00,
2013-01-22 05:39:00,-1.9,-5.0,30.01,East,87,0.0,0.0,85,0.00,,,0.00,weatherlink.com 1.10,2013-01-22 14:39:00,
2013-01-22 05:54:00,-1.8,-5.0,30.01,NNW,339,0.0,0.0,86,0.00,,,0.00,weatherlink.com 1.10,2013-01-22 14:54:00,
2013-01-22 06:09:00,-1.9,-5.0,30.00,ENE,59,0.0,0.0,85,0.00,,,0.00,weatherlink.com 1.10,2013-01-22 15:09:00,
2013-01-22 06:24:00,-2.1,-6.0,30.00,NE,43,0.0,0.0,85,0.00,,,0.00,weatherlink.com 1.10,2013-01-22 15:24:00,
2013-01-22 06:40:00,-1.6,-5.0,30.00,NNW,338,0.0,0.0,86,0.00,,,0.00,weatherlink.com 1.10,2013-01-22 15:40:00,
2013-01-22 06:55:00,-1.3,-5.0,29.99,ESE,108,0.0,0.0,85,0.00,,,0.00,weatherlink.com 1.10,2013-01-22 15:55:00,
2013-01-22 07:10:00,-0.9,-4.0,29.98,ESE,103,0.0,0.0,87,0.00,,,0.00,weatherlink.com 1.10,2013-01-22 16:10:00,
2013-01-22 07:25:00,-1.2,-5.0,29.98,NW,307,0.0,0.0,84,0.00,,,0.00,weatherlink.com 1.10,2013-01-22 16:25:00,
2013-01-22 07:40:00,-1.2,-4.0,29.98,East,101,0.0,0.0,86,0.00,,,0.00,weatherlink.com 1.10,2013-01-22 16:40:00,
2013-01-22 07:55:00,-1.3,-5.0,29.98,NW,307,0.0,0.0,86,0.00,,,0.00,weatherlink.com 1.10,2013-01-22 16:55:00,
2013-01-22 08:10:00,-1.5,-5.0,29.98,NW,324,0.0,0.0,85,0.00,,,0.00,weatherlink.com 1.10,2013-01-22 17:10:00,
2013-01-22 08:25:00,-1.4,-5.0,29.98,ENE,72,0.0,0.0,85,0.00,,,0.00,weatherlink.com 1.10,2013-01-22 17:25:00,
2013-01-22 08:40:00,-1.6,-5.0,29.98,ENE,72,0.0,0.0,85,0.00,,,0.00,weatherlink.com 1.10,2013-01-22 17:40:00,
2013-01-22 08:55:00,-1.7,-5.0,29.98,ENE,72,0.0,0.0,85,0.00,,,0.00,weatherlink.com 1.10,2013-01-22 17:55:00,
2013-01-22 09:10:00,-2.1,-6.0,29.97,East,84,0.0,0.0,84,0.00,,,0.00,weatherlink.com 1.10,2013-01-22 18:10:00,
2013-01-22 09:25:00,-2.2,-6.0,29.97,NE,46,0.0,0.0,85,0.00,,,0.00,weatherlink.com 1.10,2013-01-22 18:25:00,
2013-01-22 09:40:00,-2.1,-6.0,29.97,NE,47,0.0,0.0,85,0.00,,,0.00,weatherlink.com 1.10,2013-01-22 18:40:00,
2013-01-22 09:55:00,-2.1,-5.0,29.97,East,92,0.0,0.0,86,0.00,,,0.00,weatherlink.com 1.10,2013-01-22 18:55:00,
2013-01-22 10:11:00,-2.0,-5.0,29.96,NNE,18,0.0,0.0,85,0.00,,,0.00,weatherlink.com 1.10,2013-01-22 19:11:00,
2013-01-22 10:26:00,-1.6,-5.0,29.96,ENE,70,0.0,0.0,86,0.00,,,0.00,weatherlink.com 1.10,2013-01-22 19:26:00,
2013-01-22 10:41:00,-1.2,-5.0,29.96,East,86,0.0,0.0,85,0.00,,,0.00,weatherlink.com 1.10,2013-01-22 19:41:00,
2013-01-22 10:56:00,-1.1,-5.0,29.95,NE,45,0.0,0.0,85,0.00,,,0.00,weatherlink.com 1.10,2013-01-22 19:56:00,
2013-01-22 11:11:00,-0.8,-4.0,29.94,NE,45,0.0,0.0,86,0.00,,,0.00,weatherlink.com 1.10,2013-01-22 20:11:00,
2013-01-22 11:26:00,-0.5,-4.0,29.94,NE,45,0.0,0.0,85,0.00,,,0.00,weatherlink.com 1.10,2013-01-22 20:26:00,
2013-01-22 11:41:00,-0.4,-4.0,29.94,NE,34,0.0,0.0,86,0.00,,,0.00,weatherlink.com 1.10,2013-01-22 20:41:00,
2013-01-22 11:57:00,-0.1,-4.0,29.95,NNE,27,0.0,0.0,85,0.00,,,0.00,weatherlink.com 1.10,2013-01-22 20:57:00,
2013-01-22 12:26:00,0.1,-3.0,29.94,NNE,20,0.0,0.0,86,0.00,,,0.00,weatherlink.com 1.10,2013-01-22 21:26:00,
2013-01-22 13:12:00,1.3,-2.0,29.92,East,88,0.0,0.0,86,0.00,,,0.00,weatherlink.com 1.10,2013-01-22 22:12:00,
2013-01-22 13:27:00,1.6,-1.0,29.91,East,84,0.0,0.0,87,0.00,,,0.00,weatherlink.com 1.10,2013-01-22 22:27:00,
2013-01-22 13:42:00,2.5,-1.0,29.91,East,84,0.0,1.0,87,0.00,,,0.00,weatherlink.com 1.10,2013-01-22 22:42:00,
2013-01-22 13:57:00,2.6,-1.0,29.91,NNE,32,0.0,3.0,86,0.00,,,0.00,weatherlink.com 1.10,2013-01-22 22:57:00,
2013-01-22 14:12:00,2.5,-1.0,29.90,ENE,71,0.0,1.0,85,0.00,,,0.00,weatherlink.com 1.10,2013-01-22 23:12:00,
2013-01-22 14:27:00,2.2,-1.0,29.90,East,91,0.0,1.0,86,0.00,,,0.00,weatherlink.com 1.10,2013-01-22 23:27:00,
2013-01-22 14:42:00,2.2,-1.0,29.89,East,87,0.0,0.0,88,0.00,,,0.00,weatherlink.com 1.10,2013-01-22 23:42:00,
2013-01-22 14:57:00,2.6,0.0,29.89,East,87,0.0,0.0,88,0.00,,,0.00,weatherlink.com 1.10,2013-01-22 23:57:00,
2013-01-22 15:12:00,2.3,-1.0,29.88,NNE,17,0.0,1.0,87,0.00,,,0.00,weatherlink.com 1.10,2013-01-23 00:12:00,
2013-01-22 15:27:00,2.2,-1.0,29.88,NNE,17,0.0,1.0,86,0.00,,,0.00,weatherlink.com 1.10,2013-01-23 00:27:00,
2013-01-22 15:42:00,1.9,-1.0,29.87,ENE,60,0.0,0.0,86,0.00,,,0.00,weatherlink.com 1.10,2013-01-23 00:42:00,
2013-01-22 15:57:00,2.0,-1.0,29.87,East,89,0.0,0.0,86,0.00,,,0.00,weatherlink.com 1.10,2013-01-23 00:57:00,
2013-01-22 16:13:00,1.7,-2.0,29.87,WNW,288,0.0,0.0,86,0.00,,,0.00,weatherlink.com 1.10,2013-01-23 01:13:00,
2013-01-22 16:28:00,1.4,-2.0,29.87,NW,309,0.0,1.0,86,0.00,,,0.00,weatherlink.com 1.10,2013-01-23 01:28:00,
2013-01-22 16:43:00,1.7,-1.0,29.87,East,89,0.0,1.0,87,0.00,,,0.00,weatherlink.com 1.10,2013-01-23 01:43:00,
2013-01-22 16:58:00,1.9,-1.0,29.86,West,262,0.0,2.0,87,0.00,,,0.00,weatherlink.com 1.10,2013-01-23 01:58:00,
2013-01-22 17:13:00,1.4,-2.0,29.86,NNW,338,0.0,1.0,86,0.00,,,0.00,weatherlink.com 1.10,2013-01-23 02:13:00,
2013-01-22 17:28:00,1.9,-1.0,29.86,SE,128,0.0,1.0,86,0.00,,,0.00,weatherlink.com 1.10,2013-01-23 02:28:00,
2013-01-22 17:43:00,1.7,-1.0,29.86,SE,138,0.0,1.0,87,0.00,,,0.00,weatherlink.com 1.10,2013-01-23 02:43:00,
2013-01-22 17:58:00,1.7,-2.0,29.85,West,267,0.0,2.0,85,0.00,,,0.00,weatherlink.com 1.10,2013-01-23 02:58:00,
2013-01-22 18:13:00,2.1,-1.0,29.85,West,271,0.0,5.0,85,0.00,,,0.00,weatherlink.com 1.10,2013-01-23 03:13:00,
2013-01-22 18:28:00,1.6,-2.0,29.85,NNW,339,0.0,1.0,85,0.00,,,0.00,weatherlink.com 1.10,2013-01-23 03:28:00,
2013-01-22 18:43:00,1.5,-2.0,29.85,NNW,338,0.0,0.0,87,0.00,,,0.00,weatherlink.com 1.10,2013-01-23 03:43:00,
2013-01-22 18:58:00,1.2,-2.0,29.85,ENE,72,0.0,0.0,87,0.00,,,0.00,weatherlink.com 1.10,2013-01-23 03:58:00,
2013-01-22 19:13:00,1.0,-2.0,29.84,ESE,121,0.0,1.0,86,0.00,,,0.00,weatherlink.com 1.10,2013-01-23 04:13:00,
2013-01-22 19:28:00,0.3,-3.0,29.84,WNW,302,0.0,2.0,85,0.00,,,0.00,weatherlink.com 1.10,2013-01-23 04:28:00,
2013-01-22 19:44:00,0.0,-3.0,29.84,East,81,0.0,1.0,85,0.00,,,0.00,weatherlink.com 1.10,2013-01-23 04:44:00,
2013-01-22 19:59:00,0.4,-3.0,29.84,ENE,72,0.0,0.0,86,0.00,,,0.00,weatherlink.com 1.10,2013-01-23 04:59:00,
2013-01-22 20:14:00,0.4,-3.0,29.84,WNW,294,0.0,1.0,86,0.00,,,0.00,weatherlink.com 1.10,2013-01-23 05:14:00,
2013-01-22 20:29:00,0.1,-3.0,29.84,North,358,0.0,0.0,85,0.00,,,0.00,weatherlink.com 1.10,2013-01-23 05:29:00,
2013-01-22 20:44:00,0.0,-3.0,29.84,East,84,0.0,0.0,86,0.00,,,0.00,weatherlink.com 1.10,2013-01-23 05:44:00,
2013-01-22 20:59:00,0.2,-3.0,29.84,East,84,0.0,1.0,86,0.00,,,0.00,weatherlink.com 1.10,2013-01-23 05:59:00,
2013-01-22 21:14:00,0.4,-3.0,29.83,NW,323,0.0,0.0,86,0.00,,,0.00,weatherlink.com 1.10,2013-01-23 06:14:00,
2013-01-22 21:29:00,0.8,-2.0,29.83,ENE,63,0.0,1.0,87,0.00,,,0.00,weatherlink.com 1.10,2013-01-23 06:29:00,
2013-01-22 21:44:00,1.2,-2.0,29.83,NE,43,0.0,0.0,86,0.00,,,0.00,weatherlink.com 1.10,2013-01-23 06:44:00,
2013-01-22 21:59:00,1.0,-2.0,29.83,WNW,288,0.0,1.0,86,0.00,,,0.00,weatherlink.com 1.10,2013-01-23 06:59:00,
2013-01-22 22:14:00,1.7,-1.0,29.82,East,79,0.0,1.0,87,0.00,,,0.00,weatherlink.com 1.10,2013-01-23 07:14:00,
2013-01-22 22:29:00,3.0,0.0,29.82,WNW,288,0.0,3.0,87,0.00,,,0.00,weatherlink.com 1.10,2013-01-23 07:29:00,
2013-01-22 22:44:00,4.9,2.0,29.82,West,272,0.0,1.0,87,0.00,,,0.00,weatherlink.com 1.10,2013-01-23 07:44:00,
2013-01-22 22:59:00,3.8,0.0,29.82,WNW,287,0.0,1.0,84,0.00,,,0.00,weatherlink.com 1.10,2013-01-23 07:59:00,
2013-01-22 23:15:00,2.6,-1.0,29.82,WNW,289,0.0,0.0,85,0.00,,,0.00,weatherlink.com 1.10,2013-01-23 08:15:00,
2013-01-22 23:30:00,2.2,-1.0,29.81,WNW,290,0.0,2.0,85,0.00,,,0.00,weatherlink.com 1.10,2013-01-23 08:30:00,
2013-01-22 23:45:00,2.5,-1.0,29.81,ENE,64,0.0,3.0,84,0.00,,,0.00,weatherlink.com 1.10,2013-01-23 08:45:00,